Flag for Iran Weather past 2 weeks in Mashhad, Iran

Now
66 °F

Partly sunny.


Feels Like: 66 °F
Forecast: 50 / 67 °F
Wind: 9 mph from Southeast

Location: Mashhad Airport

Current Time: Apr 18, 2015 at 1:34:44 PM

Latest Report: Apr 18, 2015 at 1:00 PM


Visibility: N/A

Pressure: 30.01 "Hg

Humidity: 40%

Dew point: 41 °F

Location of MashhadLocation

Historic Weather in Mashhad — Graph

°F

Mashhad temperature yesterday

Maximum temperature yesterday: 81 °F (at 12:30 PM)
Minimum temperature yesterday: 54 °F (at 11:30 PM)
Average temperature yesterday: 67 °F

Past Weeks' High & Low Weather Summary

 TemperatureHumidityPressure
High88 °F (Apr 11, 2:00 PM)100% (Apr 5, 2:30 AM)30.24 "Hg (Apr 5, 2:30 AM)
Low43 °F (Apr 7, 4:50 AM)7% (Apr 11, 3:00 PM)29.74 "Hg (Apr 3, 1:00 PM)
Average63 °F51%30.03 "Hg
* Reported Apr 3 12:30 PM — Apr 18 12:30 PM, Mashhad, Weather by CustomWeather, © 2015

Note: Actual official high and low records may vary slightly from our data, if they occured in-between our weather recording intervals... More about our weather records

Advertising

Mashhad weather history for previous 24 hours

 ConditionsComfort  
Time TempWeatherWind HumidityBarometerVisibility
12:30 PM
Sat, Apr 18
63 °FPartly sunny.9 mph42%30.04 "HgN/A
12:00 PM63 °FPartly sunny.9 mph42%30.04 "HgN/A
11:30 AM64 °FPartly sunny.7 mph40%30.07 "HgN/A
11:00 AM59 °FPartly sunny.5 mph48%30.09 "HgN/A
10:30 AM57 °FPartly sunny.7 mph51%30.09 "HgN/A
10:00 AM57 °FPartly sunny.7 mph51%30.09 "HgN/A
9:30 AM57 °FPartly sunny.7 mph51%30.09 "HgN/A
9:00 AM55 °FPartly sunny.9 mph55%30.09 "HgN/A
8:30 AM54 °FPartly sunny.7 mph58%30.09 "HgN/A
8:00 AM54 °FSunny.7 mph58%30.12 "Hg10 mi
7:30 AM52 °FSunny.9 mph58%30.09 "Hg10 mi
7:00 AM52 °FPassing clouds.9 mph62%30.09 "HgN/A
6:30 AM50 °FPassing clouds.9 mph62%30.09 "HgN/A
6:00 AM50 °FPassing clouds.7 mph62%30.09 "HgN/A
5:30 AM50 °FPassing clouds.7 mph67%30.09 "HgN/A
5:00 AM52 °FPassing clouds.7 mph58%30.09 "HgN/A
4:30 AM52 °FPassing clouds.5 mph58%30.09 "HgN/A
4:00 AM52 °FPassing clouds.7 mph62%30.09 "HgN/A
3:30 AM52 °FPassing clouds.7 mph62%30.12 "HgN/A
3:00 AM52 °FPassing clouds.9 mph62%30.12 "HgN/A
2:30 AM52 °FPassing clouds.7 mph62%30.12 "HgN/A
2:00 AM52 °FPassing clouds.5 mph62%30.12 "HgN/A
1:30 AM52 °FPassing clouds.7 mph62%30.12 "HgN/A
12:30 AM54 °FPassing clouds.9 mph58%30.15 "HgN/A
11:30 PM
Fri, Apr 17
54 °FPassing clouds.9 mph58%30.12 "HgN/A
10:30 PM55 °FPassing clouds.14 mph51%30.12 "HgN/A
10:00 PM55 °FPassing clouds.14 mph51%30.12 "HgN/A
9:30 PM57 °FPassing clouds.12 mph48%30.09 "HgN/A
9:00 PM57 °FPassing clouds.12 mph48%30.09 "HgN/A
8:30 PM59 °FScattered clouds.12 mph42%30.09 "HgN/A
7:30 PM61 °FScattered clouds.12 mph39%30.04 "HgN/A
7:00 PM63 °FScattered clouds.12 mph37%30.04 "HgN/A
6:30 PM64 °FBroken clouds.14 mph30%30.04 "HgN/A
6:00 PM64 °FScattered clouds.14 mph32%30.04 "HgN/A
5:30 PM66 °FScattered clouds.14 mph26%30.01 "HgN/A
5:00 PM68 °FSprinkles. Scattered clouds.21 mph24%30.01 "Hg5 mi
4:30 PM70 °FSprinkles. Broken clouds.23 mph29%30.01 "Hg5 mi
4:00 PM70 °FSprinkles. Scattered clouds.23 mph25%30.01 "HgN/A
3:30 PM73 °FScattered clouds.30 mph22%30.01 "HgN/A
3:00 PM73 °FBroken clouds.23 mph22%30.01 "HgN/A
2:30 PM73 °FBroken clouds.23 mph22%30.01 "Hg5 mi
2:00 PM75 °FMore clouds than sun.21 mph25%30.01 "Hg5 mi
1:30 PM75 °FMore clouds than sun.14 mph31%30.04 "Hg5 mi
1:00 PM81 °FOvercast.14 mph26%30.04 "Hg5 mi
Weather by CustomWeather, © 2015

See weather overviewHow to use our weather pages